Radioactive Concentration measured by Seawater Radiation Monitor near Fukushima Daiichi Nuclear Power Station
Date,Time,Cs137(Bq/L),Cs134(Bq/L),Total β(Bq/L)
2017/02/04,00:00,0.54,0.058,10
2017/02/04,00:10,0.53,0.053,12
2017/02/04,00:20,0.53,0.053,11
2017/02/04,00:30,0.53,0.056,8.8
2017/02/04,00:40,0.54,0.046,ND
2017/02/04,00:50,0.56,0.044,ND
2017/02/04,01:00,0.55,0.048,ND
2017/02/04,01:10,0.58,0.052,ND
2017/02/04,01:20,0.60,0.055,ND
2017/02/04,01:30,0.61,0.055,ND
2017/02/04,01:40,0.60,0.067,ND
2017/02/04,01:50,0.61,0.064,ND
2017/02/04,02:00,0.63,0.065,ND
2017/02/04,02:10,0.63,0.064,ND
2017/02/04,02:20,0.62,0.063,ND
2017/02/04,02:30,0.62,0.060,ND
2017/02/04,02:40,0.62,0.060,ND
2017/02/04,02:50,0.65,0.057,ND
2017/02/04,03:00,0.67,0.045,13
2017/02/04,03:10,0.69,0.046,13
2017/02/04,03:20,0.73,0.041,10
2017/02/04,03:30,0.74,0.047,11
2017/02/04,03:40,0.76,0.045,12
2017/02/04,03:50,0.74,0.037,10
2017/02/04,04:00,0.73,0.044,ND
2017/02/04,04:10,0.69,0.047,ND
2017/02/04,04:20,0.65,0.059,ND
2017/02/04,04:30,0.63,0.059,ND
2017/02/04,04:40,0.61,0.061,ND
2017/02/04,04:50,0.59,0.070,ND
2017/02/04,05:00,0.60,0.062,8.8
2017/02/04,05:10,0.63,0.071,9.3
2017/02/04,05:20,0.59,0.055,ND
2017/02/04,05:30,0.59,0.057,10
2017/02/04,05:40,0.61,0.065,11
2017/02/04,05:50,0.60,0.077,ND
2017/02/04,06:00,0.58,0.076,ND
2017/02/04,06:10,0.58,0.086,ND
2017/02/04,06:20,0.58,0.085,ND
2017/02/04,06:30,0.57,0.078,ND
2017/02/04,06:40,0.57,0.063,ND
2017/02/04,06:50,0.58,0.053,ND
2017/02/04,07:00,0.58,0.052,ND
2017/02/04,07:10,0.59,0.040,ND
2017/02/04,07:20,0.63,0.052,ND
2017/02/04,07:30,0.64,0.053,ND
2017/02/04,07:40,0.61,0.054,ND
2017/02/04,07:50,0.59,0.063,ND
2017/02/04,08:00,0.57,0.053,ND
2017/02/04,08:10,0.57,0.052,ND
2017/02/04,08:20,0.54,0.064,ND
2017/02/04,08:30,0.52,0.065,ND
2017/02/04,08:40,0.52,0.059,ND
2017/02/04,08:50,0.57,0.041,ND
2017/02/04,09:00,0.61,0.044,ND
2017/02/04,09:10,0.61,0.051,ND
2017/02/04,09:20,0.61,0.035,ND
2017/02/04,09:30,0.61,0.027,ND
2017/02/04,09:40,0.60,0.035,ND
2017/02/04,09:50,0.55,0.037,ND
2017/02/04,10:00,0.57,0.050,ND
2017/02/04,10:10,0.56,0.042,ND
2017/02/04,10:20,0.54,0.058,ND
2017/02/04,10:30,0.57,0.059,ND
2017/02/04,10:40,0.57,0.052,12
2017/02/04,10:50,0.58,0.047,14
2017/02/04,11:00,0.59,0.054,17
2017/02/04,11:10,0.64,0.057,14
2017/02/04,11:20,0.64,0.057,9.5
2017/02/04,11:30,0.65,0.057,ND
2017/02/04,11:40,0.66,0.067,ND
2017/02/04,11:50,0.66,0.073,ND
2017/02/04,12:00,0.65,0.069,ND
2017/02/04,12:10,0.60,0.062,ND
2017/02/04,12:20,0.64,0.077,9.0
2017/02/04,12:30,0.59,0.068,10
2017/02/04,12:40,0.58,0.069,13
2017/02/04,12:50,0.56,0.064,16
2017/02/04,13:00,0.56,0.068,17
2017/02/04,13:10,0.59,0.053,19
2017/02/04,13:20,0.59,0.060,17
2017/02/04,13:30,0.60,0.058,14
2017/02/04,13:40,0.64,0.047,12
2017/02/04,13:50,0.69,0.062,8.8
2017/02/04,14:00,0.68,0.041,ND
2017/02/04,14:10,0.64,0.051,ND
2017/02/04,14:20,0.66,0.043,ND
2017/02/04,14:30,0.67,0.040,ND
2017/02/04,14:40,0.65,0.054,ND
2017/02/04,14:50,0.63,0.060,ND
2017/02/04,15:00,0.63,0.059,ND
2017/02/04,15:10,0.65,0.062,ND
2017/02/04,15:20,0.64,0.057,ND
2017/02/04,15:30,0.61,0.071,ND
2017/02/04,15:40,0.61,0.063,ND
2017/02/04,15:50,0.60,0.061,ND
2017/02/04,16:00,0.60,0.064,ND
2017/02/04,16:10,0.59,0.060,ND
2017/02/04,16:20,0.61,0.052,ND
2017/02/04,16:30,0.60,0.048,ND
2017/02/04,16:40,0.60,0.043,ND
2017/02/04,16:50,0.60,0.048,ND
2017/02/04,17:00,0.59,0.046,ND
2017/02/04,17:10,0.59,0.045,10
2017/02/04,17:20,0.56,0.053,9.3
2017/02/04,17:30,0.57,0.052,10
2017/02/04,17:40,0.55,0.053,10
2017/02/04,17:50,0.55,0.050,9.3
2017/02/04,18:00,0.54,0.045,ND
2017/02/04,18:10,0.55,0.039,ND
2017/02/04,18:20,0.57,0.028,ND
2017/02/04,18:30,0.56,0.028,ND
2017/02/04,18:40,0.54,0.044,ND
2017/02/04,18:50,0.53,0.048,ND
2017/02/04,19:00,0.57,0.048,ND
2017/02/04,19:10,0.58,0.049,ND
2017/02/04,19:20,0.57,0.054,ND
2017/02/04,19:30,0.59,0.061,ND
2017/02/04,19:40,0.64,0.040,ND
2017/02/04,19:50,0.68,0.035,ND
2017/02/04,20:00,0.70,0.053,9.2
2017/02/04,20:10,0.71,0.057,10
2017/02/04,20:20,0.74,0.057,10
2017/02/04,20:30,0.75,0.061,9.7
2017/02/04,20:40,0.71,0.075,ND
2017/02/04,20:50,0.69,0.075,ND
2017/02/04,21:00,0.67,0.076,ND
2017/02/04,21:10,0.67,0.077,ND
2017/02/04,21:20,0.67,0.077,ND
2017/02/04,21:30,0.67,0.073,ND
2017/02/04,21:40,0.67,0.072,ND
2017/02/04,21:50,0.67,0.068,ND
2017/02/04,22:00,0.67,0.072,11
2017/02/04,22:10,0.67,0.070,9.6
2017/02/04,22:20,0.64,0.061,ND
2017/02/04,22:30,0.64,0.048,ND
2017/02/04,22:40,0.65,0.050,ND
2017/02/04,22:50,0.66,0.049,ND
2017/02/04,23:00,0.68,0.056,ND
2017/02/04,23:10,0.69,0.059,11
2017/02/04,23:20,0.69,0.061,12
2017/02/04,23:30,0.65,0.065,11
2017/02/04,23:40,0.65,0.064,13
2017/02/04,23:50,0.66,0.062,13
